SCP
0 0 0 0 0 0 0 0 0 0 0 0 0 0 0 0 0 0 0 0 0 0 0 0 0 0 0 0 0 0 0 0 0 0 0 0 0 0
0 0 0 0 0 0 0 0 0 0 0 0 0 0 0 0 0 0 0 0 0 0 0 0 0 0 0 0 0 0 0 0 0 0 0 0 0 0
0 0 0 0 0 0 0 0 0 0 0 0 0 0 0 0 0 0 0 0 0 0 0 0 0 0 0 0 0 0 0 0 0 0 0 0 0 0
0 0 0 0 0 0 0 0 0 0 0 0 0 0 0 0 0 0 0 0 0 0 0 0 0 0 0 0 0 0 0 0 0 0 0 0 0 0
0 0 0 0 0 0 0 0 0 0 0 0 0 0 0 0 0 0 0 0 0 0 0 0 0 0 0 0 0 0 0 0 0 0 0 0 0 0
0 0 0 0 0 0 0 0 0 0 0 0 0 0 0 0 0 0 0 0 0 0 0 0 0 0 0 0 0 0 0 0 0 0 0 0 0 0
0 0 0 0 0 0 0 0 0 0 0 0 0 0 0 0 0 0 0 0 0 0 0 0 0 0 0 0 0 0 0 0 0 0 0 0 0 0
0 0 0 0 0 0 0 0 0 0 0 0 0 0 0 0 0 0 0 0 0 0 0 0 0 0 0 0 0 0 0 0 0 0 0 0 0 0
0 0 0 0 0 0 0 0 0 0 0 0 0 0 0 0 0 0 0 0 0 0 0 0 0 0 0 0 0 0 0 0 0 0 0 0 0 0
0 0 0 0 0 0 0 0 0 0 0 0 0 0 0 0 0 0 0 0 0 0 0 0 0 0 0 0 0 0 0 0 0 0 0 0 0 0
0 0 0 0 0 0 0 0 0 0 0 0 0 0 0 0 0 0 0 0 0 0 0 0 0 0 0 0 0 0 0 0 0 0 0 0 0 0
0 0 0 0 0 0 0 0 0 0 0 0 0 0 0 0 0 0 0 0 0 0 0 0 0 0 0 0 0 0 0 0 0 0 0 0 0 0
0 0 0 0 0 0 0 0 0 0 0 0 0 0 0 0 0 0 0 0 0 0 0 0 0 0 0 0 0 0 0 0 0 0 0 0 0 0
0 0 0 0 0 0 0 0 0 0 0 0 0 0 0 0 0 0 0 0 0 0 0 0 0 0 0 0 0 0 0 0 0 0 0 0 0 0
0 0 0 0 0 0 0 0 0 0 0 0 0 0 0 0 0 0 0 0 0 0 0 0 0 0 0 0 0 0 0 0 0 0 0 0 0 0
0 0 0 0 0 0 0 0 0 0 0 0 0 0 0 0 0 0 0 0 0 0 0 0 0 0 0 0 0 0 0 0 0 0 0 0 0 0
0 0 0 0 0 0 0 0 0 0 0 0 0 0 0 0 0 0 0 0 0 0 0 0 0 0 0 0 0 0 0 0 0 0 0 0 0 0
0 0 0 0 0 0 0 0 0 0 0 0 0 0 0 0 0 0 0 0 0 0 0 0 0 0 0 0 0 0 0 0 0 0 0 0 0 0
0 0 0 0 0 0 0 0 0 0 0 0 0 0 0 0 0 0 0 0 0 0 0 0 0 0 0 0 0 0 0 0 0 0 0 0 0 0
0 0 0 0 0 0 0 0 0 0 0 0 0 0 0 0 0 0 0 0 0 0 0 0 0 0 0 0 0 0 0 0 0 0 0 0 0 0
0 0 0 0 0 0 0 0 0 0 0 0 0 0 0 0 0 0 0 0 0 0 0 0 0 0 0 0 0 0 0 0 0 0 0 0 0 0
0 0 0 0 0 0 0 0 0 0 0 0 0 0 0 0 0 0 0 0 0 0 0 0 0 0 0 0 0 0 0 0 0 0 0 0 0 0
0 0 0 0 0 0 0 0 0 0 0 0 0 0 0 0 0 0 0 0 0 0 0 0 0 0 0 0 0 0 0 0 0 0 0 0 0 0
Wind_Speed
7 7 6 5 5 5 4 5 5 5 5 4 3 3 3 3 3 4 5 5 7 8 8 9 9 10 11 12 11 11 12 12 13 13 13 14 14 14
5 6 7 5 5 5 5 5 5 5 5 3 3 3 3 4 5 5 5 6 8 8 9 9 10 11 11 11 11 12 13 13 13 13 13 14 14 15
6 7 7 6 5 5 5 5 5 5 7 5 3 3 4 5 4 5 5 5 5 7 9 10 10 11 11 11 11 12 13 13 14 14 14 14 14 15
7 7 7 5 7 5 5 6 5 6 6 7 5 4 5 5 5 5 5 5 5 7 9 10 11 11 11 11 12 12 13 13 13 14 14 15 15 15
7 7 7 6 7 5 6 6 5 5 5 5 5 4 4 4 5 5 5 5 5 6 8 10 11 11 11 12 12 12 12 13 13 13 14 14 15 15
5 6 6 7 7 7 6 6 5 5 5 5 5 4 4 3 4 4 5 4 4 4 6 7 8 10 11 12 12 11 12 12 13 13 14 14 15 15
5 5 6 6 7 6 5 5 5 5 5 5 5 4 4 3 4 3 5 4 5 4 4 5 5 5 6 9 11 12 13 13 14 14 14 14 14 15
5 5 5 5 6 8 8 8 7 7 6 6 5 6 6 5 4 4 4 4 5 2 3 5 4 6 6 6 8 11 12 14 14 14 14 15 15 15
4 4 3 3 4 4 6 8 8 9 9 7 7 8 7 6 5 5 5 6 6 3 4 6 4 6 6 6 10 11 12 13 14 14 14 14 15 15
4 4 4 4 3 4 4 5 6 6 7 7 7 7 6 5 5 6 6 6 6 3 3 6 5 6 6 6 9 11 13 13 14 14 14 15 15 15
4 4 4 5 4 5 5 5 5 5 5 6 7 6 6 6 4 3 3 4 5 4 3 4 4 5 6 6 6 10 12 13 14 14 14 14 14 14
4 4 4 5 5 6 5 5 6 5 3 3 4 4 4 3 4 4 4 4 4 4 2 3 3 3 5 4 4 4 6 9 12 13 14 14 13 9
3 3 3 5 7 7 7 6 6 5 3 3 3 3 2 2 3 3 4 4 5 5 2 2 3 3 5 5 4 4 5 5 6 8 10 13 13 10
4 3 3 5 6 7 5 5 5 3 2 2 3 3 3 3 3 3 4 5 5 6 5 4 4 5 5 6 6 4 5 5 6 7 6 10 11 12
4 5 5 6 6 5 5 5 3 2 3 3 4 4 3 3 3 3 4 4 5 6 5 6 6 6 6 7 7 7 6 6 6 6 6 6 6 6
4 4 5 6 5 4 3 3 3 3 3 4 4 4 3 3 3 3 3 3 4 5 5 6 6 7 7 8 8 9 7 6 5 6 7 7 6 6
3 2 2 2 3 3 2 3 3 3 4 4 4 4 3 3 3 3 3 4 5 5 5 4 5 5 7 8 8 9 8 8 8 7 7 8 7 7
3 3 3 3 4 4 3 3 3 4 4 4 4 4 4 4 4 3 4 4 6 6 6 5 4 4 5 6 10 10 8 8 7 7 7 8 9 7
4 4 4 4 4 4 4 4 4 4 4 4 5 4 4 4 4 4 4 5 6 6 6 5 4 5 7 7 5 7 7 7 7 7 7 8 9 8
4 5 5 4 4 4 4 4 4 4 4 4 5 5 5 5 5 5 5 6 6 6 6 5 5 5 7 7 7 6 9 8 7 8 8 8 8 11
5 5 5 4 5 5 5 5 5 5 5 5 5 5 5 5 6 6 6 7 7 6 7 7 6 7 6 6 7 7 6 9 10 9 8 8 8 8
5 5 5 5 5 5 5 5 5 5 5 5 5 5 5 5 6 7 6 6 6 6 8 6 5 5 5 7 8 9 9 8 9 14 14 12 8 7
5 5 5 5 5 5 5 6 6 6 5 5 5 5 5 5 6 6 6 6 6 7 7 6 5 5 6 7 8 8 10 9 7 7 8 12 16 19
Wind_Direction
227 227 229 230 227 230 233 234 241 252 252 238 231 220 233 249 259 263 270 275 274 272 272 275 277 278 279 280 280 284 286 287 288 289 290 291 291 289
224 227 227 226 226 226 227 231 239 250 258 247 246 255 248 254 254 260 265 269 262 267 271 274 275 276 278 277 278 281 284 285 285 285 286 288 290 291
222 226 230 226 224 224 225 227 230 234 251 263 264 262 249 256 259 260 265 262 259 262 269 271 274 276 276 276 277 280 281 283 284 283 284 284 286 288
224 226 231 226 228 226 224 227 229 230 241 256 260 256 257 261 264 265 266 263 264 264 264 267 271 273 274 274 278 281 280 281 281 281 281 282 283 284
229 228 232 227 230 228 227 230 231 233 238 248 260 262 264 266 270 268 268 265 263 266 264 265 267 271 273 272 274 279 282 280 279 278 279 280 281 282
241 237 234 230 231 230 229 232 231 233 235 242 254 261 263 266 264 269 274 268 270 269 265 266 269 269 267 267 271 275 278 279 279 279 279 278 279 280
239 239 239 237 236 233 232 230 226 229 231 236 247 256 256 256 256 266 272 283 276 263 270 266 266 264 263 263 265 269 272 276 276 277 277 277 277 278
245 245 243 237 239 236 237 237 233 231 233 236 244 249 254 255 257 259 269 278 275 250 271 276 268 267 266 261 265 268 270 273 275 277 277 277 277 277
252 255 254 250 242 245 242 240 242 242 238 238 246 251 255 253 252 257 256 260 266 284 281 273 265 268 270 267 270 269 271 273 276 278 278 279 279 277
256 254 254 255 249 246 249 248 246 245 244 242 250 258 262 259 247 252 259 269 279 270 253 271 276 274 279 274 272 271 273 274 276 277 278 280 281 279
259 256 254 256 257 243 243 249 256 262 261 253 257 267 273 269 258 253 253 261 271 266 239 264 283 289 283 273 272 275 276 276 275 276 278 280 282 282
265 261 256 259 264 251 245 245 253 262 262 260 259 263 264 257 250 248 245 255 267 268 218 244 275 294 289 268 277 286 285 283 281 280 280 282 284 281
268 269 267 262 261 258 252 249 253 263 252 249 249 252 255 250 248 251 252 252 254 258 239 240 262 263 268 285 284 277 279 286 290 285 282 282 282 278
268 272 276 272 267 263 257 261 268 271 253 245 245 246 249 253 257 258 262 263 266 268 262 245 253 256 267 276 279 280 280 280 280 281 281 285 282 277
274 281 284 277 272 265 264 268 260 246 240 243 249 255 258 263 264 262 260 263 267 266 261 255 255 257 256 263 273 279 285 280 272 274 277 276 274 272
273 277 275 271 267 270 272 258 248 243 245 250 259 267 272 265 258 260 265 268 271 268 253 252 256 258 260 263 266 272 273 275 277 277 278 273 269 263
271 262 262 262 255 254 257 257 252 247 247 252 256 261 262 262 265 265 261 258 261 275 280 268 258 258 261 267 268 267 270 270 271 277 276 276 269 262
259 257 254 251 253 256 258 258 254 252 254 255 253 255 257 259 263 262 259 258 263 270 275 279 277 272 265 256 242 262 268 273 277 274 270 273 275 269
241 250 253 253 253 254 255 257 260 259 256 253 253 254 256 258 260 261 260 261 264 269 273 275 269 267 274 281 269 243 269 281 283 278 274 271 275 279
241 247 250 253 254 255 255 257 260 260 255 252 252 252 251 253 254 256 257 261 266 271 271 265 259 258 263 280 287 280 267 271 276 278 280 277 274 279
250 249 250 251 252 254 255 254 254 254 255 255 253 251 250 251 254 256 258 260 261 265 267 268 267 267 269 272 271 272 274 270 271 275 283 282 282 280
257 254 251 247 248 249 251 250 251 251 252 251 253 253 250 249 254 258 259 260 261 262 268 273 276 264 255 257 268 278 285 288 281 277 273 264 267 271
260 258 254 248 243 243 244 246 248 251 251 251 252 253 252 252 253 255 258 259 263 266 270 273 271 262 257 260 269 277 285 292 293 290 279 269 263 263